Location: USNO
(38.9242°N, 77.0663°W)
Time: 17:32:46
(UTC-04:00)

Tiangong 2 - Pass Details

Date: 07 October 2017
Orbit: 388 x 391 km, 42.8° (Epoch: 21 October)

Event Time Altitude Azimuth Distance (km) Brightness Sun altitude
Exits shadow 05:13:04 10° 150° (SSE) 1,406 4.1 -23.5°
Maximum altitude 05:13:35 10° 141° (SE) 1,390 4.2 -23.4°
Drops below altitude 10° 05:14:13 10° 129° (SE) 1,416 4.4 -23.2°
Sets 05:17:50 0° 87° (E) 2,277 6.4 -22.6°
